Location: Saalfelden+am+Steinernen+Meer
(47.4274°N, 12.8411°E)
Time: 10:11:00
(UTC+02:00)

Envisat - Visible Passes

Search period start: 22 September 2017 00:00
Search period end: 02 October 2017 00:00
Orbit: 764 x 766 km, 98.2° (Epoch: 21 September)

Date Brightness Start Highest point End Pass type
(mag) Time Alt. Az. Time Alt. Az. Time Alt. Az.
22 Sep 3.8 19:51:50 10° SE 19:56:14 31° ENE 20:00:39 10° N visible
22 Sep 4.2 21:31:05 14° SSW 21:35:08 39° W 21:39:55 10° NNW visible
23 Sep 3.0 20:54:06 15° SSE 20:58:19 82° WSW 21:03:26 10° NNW visible
23 Sep 5.8 22:36:37 10° WSW 22:38:08 11° W 22:39:40 10° WNW visible
24 Sep 3.2 20:17:08 12° SE 20:21:41 49° ENE 20:26:35 10° N visible
24 Sep 5.0 21:57:21 12° SW 22:00:58 24° W 22:05:02 10° NW visible
25 Sep 4.1 19:41:07 10° ESE 19:45:14 26° ENE 19:49:22 10° N visible
25 Sep 3.8 21:20:22 18° SSW 21:23:59 49° W 21:28:56 10° NNW visible
26 Sep 2.9 20:43:23 18° SSE 20:47:13 82° ENE 20:52:19 10° NNW visible
26 Sep 5.6 22:24:11 10° WSW 22:26:53 14° W 22:29:35 10° NW visible
27 Sep 3.5 20:06:25 13° SE 20:10:38 40° ENE 20:15:23 10° N visible
27 Sep 4.7 21:46:38 16° SW 21:49:46 29° W 21:54:12 10° NW visible
28 Sep 4.3 19:30:29 10° ESE 19:34:15 21° ENE 19:38:02 10° NNE visible
28 Sep 3.4 21:09:39 22° S 21:12:51 61° W 21:17:54 10° NNW visible
29 Sep 2.9 20:32:40 20° SSE 20:36:08 66° ENE 20:41:12 10° N visible
29 Sep 5.4 22:12:54 12° SW 22:15:38 18° W 22:19:03 10° NW visible
30 Sep 3.7 19:55:42 13° SE 19:59:37 33° ENE 20:04:09 10° N visible
30 Sep 4.3 21:35:55 22° SSW 21:38:35 36° W 21:43:16 10° NNW visible
01 Oct 4.5 19:19:58 10° E 19:23:17 18° ENE 19:26:37 10° NNE visible
01 Oct 3.1 20:58:56 27° S 21:01:44 75° WSW 21:06:50 10° NNW visible
01 Oct 5.9 22:41:12 10° W 22:41:37 10° W 22:42:02 10° W visible
